Terminal Aerodrome Forecast
Issued by NWS Cleveland, OH

Home | Current Version | Previous Version | Text Only | Print | Product List | Glossary On
Versions: 1 2 3 4 5 6 7 8 9 10 11 12 13 14 15 16 17 18 19 20 21
000
FTUS41 KCLE 301100
TAFMFD
TAF
KMFD 301133Z 3012/3112 21005KT P6SM BKN100
     FM301400 24008KT P6SM BKN070
     FM301900 23010KT 6SM -SHRA OVC035
      TEMPO 3020/3023 3SM TSRA OVC025CB
     FM310000 23006KT P6SM SCT035=

USA.gov is the U.S. government's official web portal to all federal, state and local government web resources and services.